User: anonymous   Login
Location: Unspecified
(0.0000°N, 0.0000°E)
Time: 02:48:43
(UTC+00:00)
Language:

Tsikada - Orbit

View from above orbital plane
View from above orbital plane
View from above satellite
View from above satellite

Ground track
Ground track

The orbit data is extracted from the following two-line orbital elements,

1 23463U 95002A   17147.57116875 +.00000001 +00000-0 -15434-4 0  9997
2 23463 082.9258 301.3222 0038090 326.9128 104.3478 13.72471450118997
Epoch (UTC): 27 May 2017 13:42:28
Eccentricity: 0.0038090
inclination: 82.9258°
perigee height: 962 km
apogee height: 1019 km
right ascension of ascending node: 301.3222°
argument of perigee: 326.9128°
revolutions per day: 13.72471450
mean anomaly at epoch: 104.3478°
orbit number at epoch: 11899

The dashed part of the orbit path shows where the satellite is in the earth's shadow,  

DLR